Santa Ynez, CA

10:28 PM PDT on July 25, 2016 (GMT -0700)
Santa Ynez

Weather History for KIZA - August, 2013

Change the Weather History Date:

Tuesday, August 27, 2013

  Actual Average (KSBA) Record (KSBA)
Temperature  
Mean Temperature 71 °F 66 °F  
Max Temperature 89 °F 75 °F 98 °F (1971)
Min Temperature 53 °F 57 °F 48 °F (1975)
Degree Days  
Heating Degree Days 0 1  
Month to date heating degree days 27  
Since 1 June heating degree days 144  
Since 1 July heating degree days 54  
Cooling Degree Days 6 2  
Month to date cooling degree days 54  
Year to date cooling degree days 126  
Since 1 June cooling degree days 112  
Growing Degree Days 21 (Base 50)    
Moisture  
Dew Point 53 °F    
Average Humidity 71    
Maximum Humidity 100    
Minimum Humidity 26    
Precipitation  
Precipitation 0.00 in 0.00 in 0.01 in (2006)
Month to date precipitation 0.10  
Year to date precipitation 12.18  
Sea Level Pressure  
Sea Level Pressure 29.86 in    
Wind  
Wind Speed 3 mph (West)    
Max Wind Speed 15 mph    
Max Gust Speed 18 mph    
Visibility 7 miles    
Events Fog    
T = Trace of Precipitation, MM = Missing Value Source: NWS Daily Summary

Daily Weather History Graph

Daily Weather History Graph

Search for Another Location

Airport or City:

Trip Planner

Search our weather history database for the weather conditions in past years. The results will help you decide how hot, cold, wet, or windy it might be!

Date:

Astronomy

Aug. 27, 2013 Rise Set
Actual Time 6:30 AM PDT 7:32 PM PDT
Civil Twilight 6:04 AM PDT 7:58 PM PDT
Nautical Twilight 5:33 AM PDT 8:29 PM PDT
Astronomical Twilight 5:01 AM PDT 9:01 PM PDT
Moon 11:48 PM PDT (8/27) 1:14 PM PDT (8/27)
Length of Visible Light 13h 54m
Length of Day
13h 02m
Waning Gibbous, 56% of the Moon is Illuminated
Aug 27
Waning Gibbous
Aug 28
Last Quarter
Sep 5
New
Sep 12
First Quarter
Sep 19
Full

Hourly Weather History & Observations

Time (PDT) Temp. Dew Point Humidity Pressure Visibility Wind Dir Wind Speed Gust Speed Precip Events Conditions
12:15 AM 55.4 °F 53.6 °F 94% 29.92 in 0.8 mi Calm Calm - N/A   Overcast
12:35 AM 55.4 °F 53.6 °F 94% 29.91 in 1.0 mi Calm Calm - N/A   Overcast
12:55 AM 55.4 °F 53.6 °F 94% 29.91 in 0.5 mi Calm Calm - N/A Fog Fog
1:15 AM 55.4 °F 53.6 °F 94% 29.90 in 0.8 mi Calm Calm - N/A   Overcast
1:35 AM 53.6 °F 53.6 °F 100% 29.90 in 0.2 mi Calm Calm - N/A Fog Fog
1:55 AM 55.4 °F 53.6 °F 94% 29.89 in 0.5 mi Calm Calm - N/A Fog Fog
2:15 AM 55.4 °F 53.6 °F 94% 29.88 in 0.5 mi Calm Calm - N/A Fog Fog
2:35 AM 53.6 °F 53.6 °F 100% 29.88 in 0.2 mi Calm Calm - N/A Fog Fog
2:55 AM 55.4 °F 53.6 °F 94% 29.88 in 0.8 mi Calm Calm - N/A   Overcast
3:15 AM 55.4 °F 53.6 °F 94% 29.87 in 1.0 mi Calm Calm - N/A   Overcast
3:35 AM 55.4 °F 53.6 °F 94% 29.87 in 0.5 mi Calm Calm - N/A Fog Fog
3:55 AM 55.4 °F 53.6 °F 94% 29.87 in 0.2 mi Calm Calm - N/A Fog Fog
4:15 AM 53.6 °F 53.6 °F 100% 29.86 in 0.5 mi Calm Calm - N/A Fog Fog
4:35 AM 55.4 °F 53.6 °F 94% 29.86 in 0.5 mi Calm Calm - N/A Fog Fog
4:55 AM 53.6 °F 53.6 °F 100% 29.86 in 0.5 mi Calm Calm - N/A Fog Fog
5:15 AM 53.6 °F 53.6 °F 100% 29.86 in 0.2 mi Calm Calm - N/A Fog Fog
5:35 AM 53.6 °F 53.6 °F 100% 29.86 in 0.2 mi Calm Calm - N/A Fog Fog
5:55 AM 53.6 °F 53.6 °F 100% 29.86 in 0.5 mi Calm Calm - N/A Fog Fog
6:15 AM 53.6 °F 51.8 °F 94% 29.87 in 2.5 mi Calm Calm - N/A   Overcast
6:35 AM 53.6 °F 51.8 °F 94% 29.87 in 0.5 mi Calm Calm - N/A Fog Fog
6:55 AM 53.6 °F 51.8 °F 94% 29.87 in 0.2 mi Calm Calm - N/A Fog Fog
7:15 AM 53.6 °F 51.8 °F 94% 29.87 in 0.5 mi Calm Calm - N/A Fog Fog
7:35 AM 53.6 °F 51.8 °F 94% 29.87 in 1.0 mi Calm Calm - N/A   Overcast
7:55 AM 53.6 °F 53.6 °F 100% 29.87 in 7.0 mi Calm Calm - N/A   Overcast
8:15 AM 55.4 °F 53.6 °F 94% 29.87 in 10.0 mi Calm Calm - N/A   Overcast
8:35 AM 55.4 °F 55.4 °F 100% 29.87 in 10.0 mi Calm Calm - N/A   Scattered Clouds
8:55 AM 57.2 °F 55.4 °F 94% 29.87 in 10.0 mi WSW 4.6 mph - N/A   Clear
9:15 AM 59.0 °F 55.4 °F 88% 29.87 in 10.0 mi West 3.5 mph - N/A   Clear
9:35 AM 59.0 °F 57.2 °F 94% 29.87 in 10.0 mi Calm Calm - N/A   Clear
9:55 AM 64.4 °F 55.4 °F 73% 29.87 in 10.0 mi Calm Calm - N/A   Clear
10:15 AM 68.0 °F 55.4 °F 64% 29.87 in 10.0 mi West 3.5 mph - N/A   Scattered Clouds
10:35 AM 71.6 °F 53.6 °F 53% 29.87 in 10.0 mi Calm Calm - N/A   Scattered Clouds
10:55 AM 73.4 °F 53.6 °F 50% 29.86 in 10.0 mi Calm Calm - N/A   Clear
11:15 AM 78.8 °F 51.8 °F 39% 29.86 in 10.0 mi WSW 3.5 mph - N/A   Clear
11:35 AM 80.6 °F 51.8 °F 37% 29.85 in 10.0 mi West 5.8 mph - N/A   Clear
11:55 AM 82.4 °F 51.8 °F 35% 29.85 in 10.0 mi WNW 6.9 mph - N/A   Clear
12:15 PM 86.0 °F 50.0 °F 29% 29.84 in 10.0 mi West 8.1 mph - N/A   Clear
12:35 PM 87.8 °F 50.0 °F 27% 29.84 in 10.0 mi WNW 6.9 mph - N/A   Clear
12:55 PM 89.6 °F 50.0 °F 26% 29.83 in 10.0 mi WNW 12.7 mph - N/A   Clear
1:15 PM 87.8 °F 50.0 °F 27% 29.83 in 10.0 mi West 13.8 mph - N/A   Clear
1:35 PM 87.8 °F 50.0 °F 27% 29.83 in 10.0 mi WNW 15.0 mph - N/A   Clear
1:55 PM 89.6 °F 50.0 °F 26% 29.83 in 10.0 mi WNW 13.8 mph 18.4 mph N/A   Clear
2:15 PM 89.6 °F 50.0 °F 26% 29.82 in 10.0 mi NW 12.7 mph - N/A   Clear
2:35 PM 87.8 °F 50.0 °F 27% 29.82 in 10.0 mi WNW 12.7 mph - N/A   Clear
2:55 PM 87.8 °F 50.0 °F 27% 29.81 in 10.0 mi West 13.8 mph - N/A   Clear
3:15 PM 86.0 °F 50.0 °F 29% 29.81 in 10.0 mi WNW 15.0 mph - N/A   Clear
3:35 PM 87.8 °F 50.0 °F 27% 29.82 in 10.0 mi West 12.7 mph - N/A   Clear
3:55 PM 86.0 °F 50.0 °F 29% 29.82 in 10.0 mi West 13.8 mph - N/A   Clear
4:15 PM 86.0 °F 50.0 °F 29% 29.82 in 10.0 mi WNW 15.0 mph - N/A   Clear
4:35 PM 84.2 °F 50.0 °F 30% 29.82 in 10.0 mi WNW 12.7 mph - N/A   Clear
4:55 PM 82.4 °F 51.8 °F 35% 29.82 in 10.0 mi West 13.8 mph - N/A   Clear
5:15 PM 78.8 °F 51.8 °F 39% 29.82 in 10.0 mi WNW 11.5 mph - N/A   Clear
5:35 PM 77.0 °F 53.6 °F 44% 29.82 in 10.0 mi West 11.5 mph - N/A   Clear
5:55 PM 73.4 °F 53.6 °F 50% 29.82 in 10.0 mi West 12.7 mph - N/A   Clear
6:15 PM 71.6 °F 53.6 °F 53% 29.83 in 10.0 mi West 12.7 mph - N/A   Clear
6:35 PM 69.8 °F 53.6 °F 56% 29.83 in 10.0 mi West 11.5 mph - N/A   Clear
6:55 PM 68.0 °F 53.6 °F 60% 29.84 in 10.0 mi West 10.4 mph - N/A   Clear
7:15 PM 64.4 °F 53.6 °F 68% 29.84 in 10.0 mi West 10.4 mph - N/A   Clear
7:35 PM 62.6 °F 53.6 °F 72% 29.85 in 10.0 mi West 9.2 mph - N/A   Clear
7:55 PM 62.6 °F 53.6 °F 72% 29.85 in 10.0 mi West 6.9 mph - N/A   Clear
8:15 PM 60.8 °F 53.6 °F 77% 29.85 in 10.0 mi WNW 8.1 mph - N/A   Clear
8:35 PM 59.0 °F 53.6 °F 82% 29.86 in 10.0 mi West 5.8 mph - N/A   Clear
8:55 PM 59.0 °F 53.6 °F 82% 29.87 in 10.0 mi WSW 4.6 mph - N/A   Clear
9:15 PM 59.0 °F 53.6 °F 82% 29.87 in 10.0 mi WSW 4.6 mph - N/A   Clear
9:35 PM 57.2 °F 53.6 °F 88% 29.87 in 10.0 mi SW 3.5 mph - N/A   Clear
9:55 PM 57.2 °F 53.6 °F 88% 29.87 in 10.0 mi WSW 4.6 mph - N/A   Clear
10:15 PM 55.4 °F 53.6 °F 94% 29.88 in 10.0 mi Calm Calm - N/A   Clear
10:35 PM 55.4 °F 53.6 °F 94% 29.88 in 10.0 mi Calm Calm - N/A   Clear
10:55 PM 55.4 °F 53.6 °F 94% 29.87 in 10.0 mi Calm Calm - N/A   Clear
11:15 PM 55.4 °F 53.6 °F 94% 29.87 in 10.0 mi Calm Calm - N/A   Clear
11:35 PM 55.4 °F 51.8 °F 88% 29.87 in 10.0 mi Calm Calm - N/A   Clear
11:55 PM 55.4 °F 51.8 °F 88% 29.87 in 10.0 mi Calm Calm - N/A   Clear